Vertical_Velocity
12 -0 -9 -6 -6 -5 -0 3 -0 1 2 7 5 -5 5 9 11 6 2 4 3 4 7 5 0 -1 -0
-12 -3 2 2 -5 -5 -2 -3 -7 -2 2 -0 -0 4 -1 7 2 9 5 3 1 -0 1 6 6 -1 -2
-15 3 -5 6 -9 4 4 -2 -1 -5 -0 1 3 4 -7 9 -3 5 5 9 5 3 3 9 1 4 -3
-6 -11 1 -1 2 -0 -9 26 -7 3 -8 -6 -4 2 -5 -0 -19 -4 5 4 12 9 15 12 3 -12 4
-4 -3 -10 -12 6 -2 -8 -6 -3 -10 -13 -7 -4 -2 1 1 -9 -9 11 11 6 7 0 7 -4 10 -7
-4 -3 -12 -1 -2 3 -4 -7 -25 4 1 -14 -7 -1 -1 1 1 -7 -4 8 10 11 12 12 1 8 -11
2 2 -9 3 4 -4 -1 6 -4 -3 3 -5 -10 -8 -6 -5 -3 9 12 10 8 6 7 1 1 4 -8
13 13 5 1 26 14 3 -3 -7 -3 5 -9 3 -7 -5 -4 7 15 19 16 5 9 -7 -2 -0 -3 -5
4 -2 -4 -7 6 11 -0 13 -6 -4 -6 3 -0 -1 0 10 12 12 11 5 3 -1 1 1 2 -3 0
-6 -6 -3 -8 2 10 5 1 6 -2 -14 13 -1 9 2 4 7 10 5 3 3 0 1 4 1 1 -2
-7 -1 -2 -2 1 2 5 9 2 3 3 13 1 6 5 -1 7 10 5 4 -1 0 5 3 -1 -3 -1
0 -7 -7 -4 -2 1 -0 1 3 1 2 6 8 3 1 -0 -0 4 4 4 3 -0 -0 1 5 7 1
-2 -5 -0 1 1 -1 1 1 1 2 6 10 11 9 9 -1 -10 -2 -5 -1 1 0 -2 -0 -2 -5 1
-4 -1 1 -1 -2 5 1 3 5 4 1 3 4 12 1 6 4 -4 -0 -5 -2 -0 2 2 0 0 3
1 3 1 1 -0 4 1 5 4 -0 3 5 2 -2 -0 1 -3 3 0 1 3 1 -1 -0 1 3 1
3 5 1 1 -0 1 3 4 4 3 3 1 1 2 0 0 8 1 2 1 -1 -2 -2 1 2 -0 -2
8 3 4 1 0 1 4 3 2 4 -2 1 0 2 0 -2 1 1 1 -2 -1 1 4 2 -1 -1 -0
Height
1318 1313 1307 1303 1300 1298 1294 1291 1288 1285 1284 1283 1283 1284 1285 1286 1287 1290 1293 1298 1303 1306 1310 1313 1316 1320 1325
1305 1302 1299 1295 1289 1286 1282 1279 1276 1274 1273 1272 1270 1271 1272 1271 1274 1277 1280 1282 1287 1292 1297 1300 1303 1307 1312
1302 1294 1289 1285 1280 1277 1271 1268 1264 1263 1262 1260 1259 1257 1258 1259 1258 1261 1264 1266 1270 1275 1281 1285 1291 1292 1301
1297 1289 1282 1276 1274 1267 1261 1256 1253 1252 1251 1250 1248 1244 1245 1245 1248 1248 1251 1253 1249 1261 1266 1271 1274 1283 1291
1289 1282 1275 1269 1267 1261 1255 1250 1242 1240 1239 1237 1236 1234 1234 1234 1235 1232 1238 1242 1245 1245 1253 1260 1266 1268 1279
1283 1278 1268 1265 1259 1254 1248 1243 1233 1234 1229 1224 1229 1225 1224 1224 1223 1222 1227 1230 1233 1238 1242 1249 1256 1262 1268
1277 1270 1261 1257 1251 1243 1239 1234 1227 1224 1223 1216 1217 1213 1214 1214 1214 1214 1217 1219 1222 1230 1234 1244 1250 1256 1261
1268 1260 1254 1248 1243 1236 1229 1223 1215 1212 1213 1206 1205 1202 1203 1205 1205 1206 1208 1213 1219 1225 1231 1238 1244 1249 1256
1257 1251 1244 1236 1232 1226 1218 1213 1204 1202 1199 1199 1194 1193 1194 1194 1200 1201 1205 1211 1216 1221 1226 1233 1239 1246 1254
1243 1237 1231 1224 1220 1216 1209 1203 1198 1191 1188 1190 1187 1188 1187 1189 1193 1196 1200 1206 1212 1218 1224 1230 1235 1242 1249
1235 1227 1220 1215 1211 1205 1200 1195 1190 1185 1184 1183 1177 1178 1180 1180 1187 1192 1197 1203 1208 1216 1222 1228 1234 1238 1244
1229 1221 1215 1208 1203 1197 1192 1187 1183 1178 1174 1172 1170 1169 1170 1173 1179 1186 1193 1199 1206 1212 1218 1224 1231 1235 1240
1225 1217 1211 1202 1196 1190 1186 1181 1177 1172 1167 1165 1165 1165 1166 1167 1171 1181 1189 1197 1203 1209 1215 1221 1226 1231 1236
1221 1212 1204 1197 1191 1186 1182 1178 1175 1170 1166 1164 1166 1168 1168 1171 1176 1182 1189 1193 1198 1205 1212 1218 1223 1227 1232
1215 1207 1199 1192 1186 1182 1178 1177 1174 1173 1171 1169 1169 1171 1174 1177 1179 1183 1189 1193 1198 1203 1209 1215 1219 1223 1227
1210 1203 1195 1188 1182 1178 1176 1175 1175 1174 1173 1172 1174 1175 1178 1181 1185 1186 1191 1194 1198 1203 1208 1212 1216 1220 1224
1206 1199 1191 1185 1180 1178 1176 1176 1175 1176 1176 1176 1178 1179 1180 1182 1186 1189 1192 1195 1198 1202 1206 1208 1213 1217 1220